Time,TemperatureF,DewpointF,PressureIn,WindDirection,WindDirectionDegrees,WindSpeedMPH,WindSpeedGustMPH,Humidity,HourlyPrecipIn,Conditions,Clouds,dailyrainin,SolarRadiationWatts/m^2,SoftwareType,DateUTC
2013-09-05 00:01:00,68.0,46.0,-100.00,ENE,71,5.0,8.0,45,0.00,,,0.00,0.000000,,2013-09-05 06:01:00,
2013-09-05 00:42:00,67.0,46.0,-100.00,NE,54,7.0,9.0,47,0.00,,,0.00,0.000000,,2013-09-05 06:42:00,
2013-09-05 00:52:00,67.0,46.0,-100.00,NE,54,7.0,9.0,47,0.00,,,0.00,0.000000,,2013-09-05 06:52:00,
2013-09-05 01:01:00,67.0,46.0,-100.00,NE,54,7.0,9.0,47,0.00,,,0.00,0.000000,,2013-09-05 07:01:00,
2013-09-05 01:42:00,67.0,47.0,-100.00,SE,143,6.0,12.0,48,0.00,,,0.00,0.000000,,2013-09-05 07:42:00,
2013-09-05 01:52:00,67.0,47.0,-100.00,SE,143,6.0,12.0,48,0.00,,,0.00,0.000000,,2013-09-05 07:52:00,
2013-09-05 02:03:00,67.0,47.0,-100.00,SE,143,6.0,12.0,48,0.00,,,0.00,0.000000,,2013-09-05 08:03:00,
2013-09-05 02:42:00,63.0,46.0,-100.00,North,7,7.0,8.0,53,-99.99,,,0.00,0.000000,,2013-09-05 08:42:00,
2013-09-05 02:52:00,63.0,46.0,-100.00,North,7,7.0,8.0,53,-99.99,,,0.00,0.000000,,2013-09-05 08:52:00,
2013-09-05 03:02:00,63.0,46.0,-100.00,North,7,7.0,8.0,53,-99.99,,,0.00,0.000000,,2013-09-05 09:02:00,
2013-09-05 03:43:00,65.0,47.0,-100.00,NE,55,6.0,12.0,53,0.00,,,0.00,0.000000,,2013-09-05 09:43:00,
2013-09-05 03:53:00,65.0,47.0,-100.00,NE,55,6.0,12.0,53,0.00,,,0.00,0.000000,,2013-09-05 09:53:00,
2013-09-05 04:03:00,65.0,47.0,-100.00,NE,55,6.0,12.0,53,0.00,,,0.00,0.000000,,2013-09-05 10:03:00,
2013-09-05 04:43:00,64.0,47.0,-100.00,ENE,72,6.0,12.0,54,0.00,,,0.00,0.000000,,2013-09-05 10:43:00,
2013-09-05 04:53:00,64.0,47.0,-100.00,ENE,72,6.0,12.0,54,0.00,,,0.00,0.000000,,2013-09-05 10:53:00,
2013-09-05 05:03:00,64.0,47.0,-100.00,ENE,72,6.0,12.0,54,0.00,,,0.00,0.000000,,2013-09-05 11:03:00,
2013-09-05 05:43:00,64.0,47.0,-100.00,ENE,67,6.0,11.0,55,0.00,,,0.00,0.000000,,2013-09-05 11:43:00,
2013-09-05 05:52:00,64.0,47.0,-100.00,ENE,67,6.0,11.0,55,0.00,,,0.00,0.000000,,2013-09-05 11:52:00,
2013-09-05 06:01:00,64.0,47.0,-100.00,ENE,67,6.0,11.0,55,0.00,,,0.00,0.000000,,2013-09-05 12:01:00,
2013-09-05 06:42:00,63.0,48.0,-100.00,NE,36,5.0,8.0,57,-99.99,,,0.00,0.000000,,2013-09-05 12:42:00,
2013-09-05 06:52:00,63.0,48.0,-100.00,NE,36,5.0,8.0,57,-99.99,,,0.00,0.000000,,2013-09-05 12:52:00,
2013-09-05 07:01:00,63.0,48.0,-100.00,NE,36,5.0,8.0,57,-99.99,,,0.00,0.000000,,2013-09-05 13:01:00,
2013-09-05 07:42:00,63.0,48.0,-100.00,East,86,7.0,12.0,57,0.00,,,0.00,2.000000,,2013-09-05 13:42:00,
2013-09-05 08:42:00,63.0,48.0,-100.00,ENE,66,5.0,10.0,58,-99.99,,,0.00,39.000000,,2013-09-05 14:42:00,
2013-09-05 09:44:00,65.0,49.0,-100.00,ESE,107,4.0,9.0,56,0.00,,,0.00,77.000000,,2013-09-05 15:44:00,
2013-09-05 10:43:00,64.0,49.0,-100.00,SSW,213,6.0,9.0,58,-99.99,,,0.00,186.000000,,2013-09-05 16:43:00,
2013-09-05 10:54:00,64.0,49.0,-100.00,SSW,213,6.0,9.0,58,-99.99,,,0.00,186.000000,,2013-09-05 16:54:00,
2013-09-05 11:03:00,64.0,49.0,-100.00,SSW,213,6.0,9.0,58,-99.99,,,0.00,186.000000,,2013-09-05 17:03:00,
2013-09-05 11:43:00,70.0,52.0,-100.00,SSW,194,5.0,7.0,52,0.00,,,0.00,338.000000,,2013-09-05 17:43:00,
2013-09-05 11:52:00,70.0,52.0,-100.00,SSW,194,5.0,7.0,52,0.00,,,0.00,338.000000,,2013-09-05 17:52:00,
2013-09-05 12:02:00,70.0,52.0,-100.00,SSW,194,5.0,7.0,52,0.00,,,0.00,338.000000,,2013-09-05 18:02:00,
2013-09-05 13:52:00,53.0,53.0,-100.00,East,92,7.0,25.0,100,-99.99,,,0.00,67.000000,,2013-09-05 19:52:00,
2013-09-05 14:02:00,53.0,53.0,-100.00,East,92,7.0,25.0,100,-99.99,,,0.00,67.000000,,2013-09-05 20:02:00,
2013-09-05 14:43:00,58.0,58.0,-100.00,North,10,6.0,10.0,99,-99.99,,,0.01,386.000000,,2013-09-05 20:43:00,
2013-09-05 14:52:00,58.0,58.0,-100.00,North,10,6.0,10.0,99,-99.99,,,0.01,386.000000,,2013-09-05 20:52:00,
2013-09-05 15:02:00,58.0,58.0,-100.00,North,10,6.0,10.0,99,-99.99,,,0.01,386.000000,,2013-09-05 21:02:00,
2013-09-05 15:44:00,63.0,58.0,-100.00,North,355,6.0,7.0,84,0.00,,,0.01,824.000000,,2013-09-05 21:44:00,
2013-09-05 15:54:00,63.0,58.0,-100.00,North,355,6.0,7.0,84,0.00,,,0.01,824.000000,,2013-09-05 21:54:00,
2013-09-05 16:04:00,63.0,58.0,-100.00,North,355,6.0,7.0,84,0.00,,,0.01,824.000000,,2013-09-05 22:04:00,
2013-09-05 16:43:00,68.0,56.0,-100.00,North,7,4.0,7.0,66,0.00,,,0.01,776.000000,,2013-09-05 22:43:00,
2013-09-05 16:53:00,68.0,56.0,-100.00,North,7,4.0,7.0,66,0.00,,,0.01,776.000000,,2013-09-05 22:53:00,
2013-09-05 17:02:00,68.0,56.0,-100.00,North,7,4.0,7.0,66,0.00,,,0.01,776.000000,,2013-09-05 23:02:00,
2013-09-05 17:42:00,70.0,52.0,-100.00,North,352,6.0,10.0,53,0.00,,,0.01,722.000000,,2013-09-05 23:42:00,
2013-09-05 17:53:00,70.0,52.0,-100.00,North,352,6.0,10.0,53,0.00,,,0.01,722.000000,,2013-09-05 23:53:00,
2013-09-05 18:01:00,70.0,52.0,-100.00,North,352,6.0,10.0,53,0.00,,,0.01,722.000000,,2013-09-06 00:01:00,
2013-09-05 18:42:00,64.0,50.0,-100.00,NNW,340,9.0,11.0,60,0.00,,,0.01,103.000000,,2013-09-06 00:42:00,
2013-09-05 18:52:00,64.0,50.0,-100.00,NNW,340,9.0,11.0,60,0.00,,,0.01,103.000000,,2013-09-06 00:52:00,
2013-09-05 19:01:00,64.0,50.0,-100.00,NNW,340,9.0,11.0,60,0.00,,,0.01,103.000000,,2013-09-06 01:01:00,
2013-09-05 19:42:00,55.0,55.0,-100.00,SW,217,24.0,34.0,99,0.10,,,0.11,3.000000,,2013-09-06 01:42:00,
2013-09-05 19:52:00,55.0,55.0,-100.00,SW,217,24.0,34.0,99,0.10,,,0.11,3.000000,,2013-09-06 01:52:00,
2013-09-05 20:02:00,55.0,55.0,-100.00,SW,217,24.0,34.0,99,0.10,,,0.11,3.000000,,2013-09-06 02:02:00,
2013-09-05 20:42:00,52.0,52.0,-100.00,NNE,29,11.0,32.0,100,0.14,,,0.25,7.000000,,2013-09-06 02:42:00,
2013-09-05 20:52:00,52.0,52.0,-100.00,NNE,29,11.0,32.0,100,0.14,,,0.25,7.000000,,2013-09-06 02:52:00,
2013-09-05 21:02:00,52.0,52.0,-100.00,NNE,29,11.0,32.0,100,0.14,,,0.25,7.000000,,2013-09-06 03:02:00,
2013-09-05 21:44:00,52.0,52.0,-100.00,North,4,13.0,19.0,100,0.00,,,0.25,0.000000,,2013-09-06 03:44:00,
2013-09-05 21:55:00,52.0,52.0,-100.00,North,4,13.0,19.0,100,0.00,,,0.25,0.000000,,2013-09-06 03:55:00,
2013-09-05 22:04:00,52.0,52.0,-100.00,North,4,13.0,19.0,100,0.00,,,0.25,0.000000,,2013-09-06 04:04:00,
2013-09-05 22:44:00,52.0,52.0,-100.00,North,10,11.0,17.0,100,0.00,,,0.25,0.000000,,2013-09-06 04:44:00,
2013-09-05 22:54:00,52.0,52.0,-100.00,North,10,11.0,17.0,100,0.00,,,0.25,0.000000,,2013-09-06 04:54:00,
2013-09-05 23:03:00,52.0,52.0,-100.00,North,10,11.0,17.0,100,0.00,,,0.25,0.000000,,2013-09-06 05:03:00,
2013-09-05 23:43:00,51.0,51.0,-100.00,North,2,8.0,30.0,100,0.05,,,0.30,0.000000,,2013-09-06 05:43:00,
2013-09-05 23:52:00,51.0,51.0,-100.00,North,2,8.0,30.0,100,0.05,,,0.30,0.000000,,2013-09-06 05:52:00,